Wind_Speed
6 3 7 12 3 3 5 8 4 14 8 12 25 19 16 15 5 2 15 27 9 11 13 11 11 11 11 13 13 13 12 10 10 11 11 10 10 10 10 10 10 9 9 8 6 6 6 7 7
5 2 6 6 2 2 6 5 8 7 17 31 27 22 20 7 24 7 8 21 6 13 14 12 11 10 10 11 12 12 12 10 9 9 8 7 8 8 8 7 7 6 6 5 5 5 5 5 6
1 3 3 3 3 5 3 5 8 6 9 11 9 18 18 18 23 14 16 15 14 16 13 12 10 9 9 10 11 11 12 10 9 8 8 7 6 5 5 6 5 5 5 5 5 5 5 5 5
3 3 6 0 9 12 7 5 8 8 5 20 19 11 26 16 26 24 23 12 15 15 12 11 10 8 8 9 10 10 10 10 8 7 8 7 5 5 5 5 5 4 5 5 6 6 6 6 6
4 6 2 4 10 6 2 7 6 6 3 24 32 16 24 17 21 24 19 21 14 13 11 10 9 7 7 7 7 8 8 9 8 8 8 8 7 6 6 7 7 8 8 8 8 8 8 8 8
4 4 3 5 9 6 5 7 7 11 23 19 25 21 19 17 14 13 21 16 4 10 11 9 7 5 5 4 4 4 5 6 7 7 7 8 9 9 9 10 10 11 11 11 11 10 11 11 11
6 0 6 9 12 5 2 5 8 12 21 15 23 9 18 16 13 13 16 12 6 8 9 3 6 6 5 4 4 4 2 4 6 8 9 10 12 12 12 13 14 14 14 14 14 13 13 13 13
12 2 10 7 7 3 4 6 14 22 10 13 12 5 8 14 9 12 11 11 10 10 14 3 5 7 11 4 3 2 4 4 7 10 13 13 14 15 16 17 17 17 17 17 16 16 15 16 16
15 3 5 8 9 3 7 6 13 11 9 19 20 18 14 12 15 21 37 33 17 29 17 8 7 7 11 11 6 4 3 3 5 10 13 15 16 17 19 20 20 20 20 19 19 19 18 18 18
5 3 6 3 6 7 9 13 16 16 24 23 24 20 15 13 11 20 28 28 25 19 16 17 11 10 11 6 4 6 6 5 13 12 10 13 15 17 20 20 19 15 15 18 20 22 22 22 22
10 7 5 7 14 15 7 9 12 17 9 21 23 21 23 18 17 17 18 20 17 14 12 13 8 3 6 5 8 7 3 12 14 14 10 12 12 14 12 13 17 18 19 21 19 18 22 26 25
1 11 2 9 14 9 8 9 14 24 16 16 18 14 17 26 22 20 16 17 18 17 17 18 16 14 12 10 10 4 4 5 10 15 13 6 15 19 18 15 16 17 20 22 24 21 16 15 18
3 8 2 5 7 4 13 11 11 20 18 17 17 20 15 14 17 14 16 15 18 19 18 19 19 18 17 18 15 13 11 8 5 12 12 13 18 20 24 19 20 24 22 25 27 26 24 20 15
9 11 2 2 4 5 2 8 8 13 12 13 11 14 16 14 12 13 17 17 18 16 18 17 16 17 18 18 19 18 15 10 12 12 13 15 19 14 20 25 24 22 26 27 31 25 23 27 24
3 4 8 4 5 6 4 5 7 17 13 14 11 10 11 10 8 9 10 12 15 17 17 18 18 17 17 18 20 20 19 17 14 15 17 17 16 18 23 19 22 20 25 28 30 24 23 24 21
6 4 4 9 10 7 6 7 9 17 13 11 16 14 15 10 6 6 9 13 15 17 20 24 26 26 25 24 23 21 19 17 16 15 14 18 21 20 24 27 26 23 28 30 29 28 32 34 27
5 5 6 6 10 8 5 5 9 17 15 7 13 16 18 14 8 6 9 13 17 17 21 26 29 30 31 31 30 25 20 17 17 16 14 13 17 20 23 28 29 33 30 33 30 33 25 25 30
5 5 4 8 6 6 1 4 6 17 17 15 9 20 16 8 5 4 9 16 14 14 18 22 24 27 28 32 36 32 24 21 21 21 21 19 17 22 27 28 27 30 32 33 31 35 30 29 31
5 6 7 4 7 6 4 4 5 20 16 11 16 13 15 11 5 4 14 13 9 12 17 21 22 23 24 29 35 32 27 28 27 23 21 21 22 22 23 26 31 29 31 34 31 29 35 36 35
6 6 6 5 5 4 3 8 9 7 14 16 20 18 12 4 3 8 8 5 6 14 17 19 19 19 23 27 31 30 30 31 29 30 27 21 18 17 19 19 24 32 28 31 33 33 34 33 32
5 4 3 3 6 7 6 8 10 7 22 22 19 12 3 2 3 2 9 4 12 14 14 17 17 20 23 27 29 28 30 33 35 34 31 24 26 27 25 24 23 24 28 32 34 32 33 37 37
4 8 10 9 6 3 4 5 6 10 10 10 17 10 3 3 2 8 3 11 15 10 16 20 17 20 23 25 28 28 30 35 36 35 37 37 34 30 32 32 29 29 26 26 30 35 37 32 34
4 7 6 5 5 3 10 2 2 8 5 2 12 9 4 5 5 9 11 13 5 17 20 15 17 17 21 22 23 28 35 36 39 40 42 44 45 44 35 29 32 31 30 29 28 30 34 37 39
5 5 7 6 3 1 11 5 2 3 6 3 4 13 10 6 9 13 14 10 16 21 19 16 13 18 18 21 27 34 36 37 38 42 45 47 47 44 42 35 28 25 25 26 26 26 28 34 35
6 2 3 5 3 6 4 4 3 7 9 7 9 3 10 12 11 12 13 15 21 18 15 12 15 15 19 25 30 33 33 37 41 42 43 46 48 48 48 41 39 33 32 29 25 23 24 29 32
4 6 5 4 1 5 8 4 2 7 14 13 15 13 12 12 10 9 12 19 16 12 15 13 13 19 24 29 35 40 48 48 49 52 47 43 41 40 42 44 42 40 35 38 34 32 27 23 26
4 4 8 4 4 3 2 4 4 9 7 8 6 7 10 12 8 9 18 18 14 17 14 16 21 26 31 37 43 46 52 54 53 41 42 42 42 42 41 39 37 40 37 32 34 37 34 31 32
3 1 1 3 2 3 4 2 3 5 5 4 6 8 15 15 11 17 14 16 20 19 17 23 29 34 38 42 45 50 56 56 43 40 41 40 40 39 36 36 35 35 35 36 35 35 37 35 33
1 2 2 4 5 5 2 5 5 9 6 2 6 12 17 10 17 12 15 20 19 19 24 29 34 38 42 48 52 56 60 47 42 38 38 37 37 36 35 34 33 33 31 29 30 33 33 34 34
4 1 5 5 4 3 5 5 8 8 11 2 3 3 9 14 10 14 18 18 18 19 26 32 39 47 50 51 54 58 48 42 39 39 35 33 35 35 35 34 33 32 32 34 32 28 27 26 26
Wind_Direction
284 275 333 324 28 76 275 270 281 33 33 75 74 86 109 94 79 154 128 92 259 174 183 171 155 141 142 141 147 147 142 134 135 137 136 134 132 132 135 142 151 156 161 158 153 157 162 168 172
271 301 305 276 101 335 285 247 36 57 89 92 84 98 91 93 33 342 206 167 162 175 187 170 153 147 147 146 153 155 153 147 145 145 144 145 143 144 146 153 161 164 168 169 174 181 184 187 189
186 294 298 169 202 209 255 3 15 43 43 61 107 85 120 132 96 182 151 155 141 176 172 159 152 150 151 151 155 162 163 163 164 167 168 165 166 166 169 177 180 190 192 200 206 212 217 218 219
32 296 256 96 258 264 193 27 5 3 67 86 105 66 89 124 159 155 147 151 135 133 152 153 153 146 151 152 155 164 173 176 180 184 187 190 195 202 200 210 222 225 232 230 233 233 237 241 241
323 265 255 247 261 286 101 72 355 347 25 99 91 98 108 133 129 145 153 157 118 120 144 146 146 144 148 149 155 167 182 188 195 202 208 211 218 229 239 240 241 241 239 239 244 246 245 248 250
278 265 346 266 281 226 77 66 8 13 54 84 97 105 107 103 102 104 141 149 152 115 113 109 101 115 109 118 136 173 192 202 216 226 234 236 241 250 255 257 258 259 256 254 253 250 250 251 253
226 113 258 289 289 295 93 78 54 70 53 20 101 79 62 70 84 119 151 159 181 127 96 44 116 97 74 76 62 33 336 274 247 244 250 254 256 259 262 263 264 265 266 264 265 263 259 257 256
234 110 300 275 313 306 92 68 61 63 52 56 72 47 34 15 33 21 178 172 163 136 56 91 99 71 30 45 90 63 22 358 332 303 272 260 261 264 266 267 267 265 264 263 264 266 267 265 263
246 30 283 288 348 88 94 76 70 54 61 83 95 100 80 23 17 28 76 79 107 80 84 57 62 26 349 330 305 307 306 280 333 301 273 276 274 273 273 272 271 271 269 265 265 265 265 264 263
146 156 245 222 26 6 47 61 74 59 51 41 75 72 68 39 33 45 48 57 57 62 67 86 105 92 80 58 326 335 323 289 315 296 299 278 275 277 279 275 271 276 279 272 269 270 267 263 263
215 217 264 356 49 16 18 36 81 84 50 62 62 58 55 47 36 36 34 38 32 17 14 17 19 350 344 34 51 45 336 326 332 277 278 276 277 255 255 279 276 269 271 273 277 281 278 271 269
193 279 242 56 47 11 355 15 74 94 88 73 66 72 59 51 41 31 15 359 356 346 348 344 348 341 334 338 335 316 326 330 308 303 299 303 301 289 269 254 258 267 272 274 273 271 280 288 282
186 264 208 65 48 340 13 353 92 83 91 84 78 72 64 56 50 22 10 353 353 344 354 353 349 337 330 318 316 318 301 284 289 294 298 299 293 299 261 262 251 257 262 266 273 271 268 271 274
19 353 86 284 181 116 76 296 126 114 113 99 91 78 76 73 62 38 26 7 360 352 354 352 344 335 327 321 319 315 314 295 269 278 288 300 294 282 282 257 255 253 258 261 262 269 273 268 265
319 299 304 241 236 140 93 316 122 132 138 134 135 136 120 104 77 57 35 11 349 347 341 343 338 333 321 318 313 309 306 303 289 271 267 282 289 271 279 266 248 249 248 258 260 263 267 266 270
240 251 233 235 192 149 123 286 140 141 147 168 150 146 136 125 95 50 14 354 340 331 335 338 338 333 327 321 315 310 305 301 300 300 289 276 277 287 271 264 257 253 252 258 258 256 255 257 269
265 234 220 129 170 154 138 140 160 166 170 161 143 153 132 127 105 33 356 348 337 327 330 339 341 339 338 337 334 322 306 297 287 279 277 263 269 278 278 268 257 260 261 256 266 256 258 253 258
328 339 83 147 178 95 317 306 189 182 170 185 159 137 141 123 93 10 343 335 322 316 327 336 338 338 339 339 340 336 320 305 295 283 273 271 268 261 262 260 262 262 261 260 267 249 250 250 255
316 305 316 94 153 126 143 246 268 187 193 160 163 151 123 109 96 339 322 313 305 321 335 335 338 335 335 341 341 338 334 327 318 308 297 283 284 281 283 271 255 256 258 259 256 254 253 253 252
318 301 298 304 33 91 146 249 246 233 182 169 123 102 90 57 322 311 321 309 324 333 336 339 328 327 335 340 340 334 330 326 324 318 300 287 282 284 281 278 274 254 260 261 261 256 256 251 255
284 298 293 51 357 349 323 304 268 257 124 109 111 106 107 272 240 339 339 346 341 337 335 328 320 322 330 334 334 331 329 325 326 326 324 310 284 280 284 280 276 273 264 254 255 258 256 252 257
334 21 10 7 18 283 45 278 311 94 54 76 109 138 216 156 11 323 344 335 328 328 336 324 315 323 330 332 332 335 327 324 322 319 316 314 311 303 282 275 275 275 275 268 260 255 256 258 256
259 27 345 300 287 332 295 2 240 99 63 127 152 189 269 287 343 41 7 350 10 344 339 318 320 329 332 333 333 329 326 325 322 313 308 307 306 304 301 286 276 274 278 276 269 265 261 258 256
299 305 295 267 194 309 250 209 270 140 163 184 195 211 227 19 14 -0 352 347 339 339 336 317 324 329 328 329 328 326 324 322 315 310 306 305 307 304 298 297 283 270 271 274 270 266 273 264 260
202 21 329 347 42 220 331 328 219 137 146 166 197 178 27 4 354 351 343 342 340 331 333 332 323 322 327 326 323 323 317 313 310 305 302 301 300 298 294 286 284 272 266 263 263 266 264 262 264
292 136 144 200 35 288 332 30 5 64 65 71 49 25 359 332 332 352 5 348 335 341 339 336 330 328 325 325 323 325 323 316 311 305 303 300 299 298 296 287 280 283 274 268 264 268 264 264 268
330 56 164 108 20 29 233 99 51 66 36 29 358 331 314 317 331 2 347 344 11 0 352 339 331 326 323 320 319 321 319 315 314 309 302 299 298 294 294 293 287 273 274 268 266 260 263 263 265
215 284 49 25 129 227 314 76 201 142 154 246 318 341 332 313 357 353 20 13 2 357 345 333 329 323 320 317 319 319 317 317 313 308 304 300 295 297 294 292 288 284 275 267 264 264 260 260 261
177 256 202 133 136 171 193 268 184 193 171 162 276 311 316 348 356 21 12 358 358 344 335 328 324 324 322 321 320 319 319 318 311 308 304 300 301 301 299 292 288 281 276 271 268 262 259 258 257
129 269 127 123 266 191 157 261 278 155 178 80 83 297 292 353 21 3 357 3 354 340 332 327 325 324 322 321 318 318 318 316 311 312 309 304 299 296 294 290 286 281 271 264 266 267 254 255 261
Height
1510 1511 1509 1507 1518 1514 1518 1496 1474 1473 1471 1478 1474 1478 1498 1508 1519 1528 1522 1517 1514 1515 1518 1517 1516 1515 1518 1515 1517 1518 1519 1521 1522 1523 1525 1527 1529 1531 1532 1533 1534 1536 1538 1539 1540 1542 1542 1543 1544
1510 1511 1510 1508 1523 1533 1522 1484 1482 1475 1477 1475 1480 1492 1500 1514 1507 1512 1523 1519 1513 1517 1519 1517 1516 1517 1518 1517 1518 1520 1520 1522 1524 1525 1526 1528 1530 1532 1533 1535 1536 1537 1538 1539 1540 1542 1542 1543 1544
1511 1510 1511 1511 1519 1526 1514 1484 1477 1473 1471 1473 1484 1493 1498 1508 1501 1503 1511 1517 1512 1517 1519 1517 1517 1517 1519 1518 1519 1521 1521 1522 1524 1525 1527 1529 1531 1533 1534 1535 1536 1537 1538 1539 1540 1541 1542 1543 1543
1511 1511 1510 1516 1518 1497 1490 1480 1476 1475 1474 1474 1478 1490 1496 1493 1492 1498 1506 1510 1512 1514 1517 1518 1519 1518 1520 1519 1519 1521 1522 1522 1524 1526 1528 1530 1532 1534 1534 1535 1536 1537 1538 1539 1541 1541 1541 1542 1542
1511 1510 1516 1515 1507 1491 1481 1477 1477 1478 1477 1480 1480 1497 1499 1502 1506 1510 1519 1519 1511 1512 1516 1517 1518 1519 1520 1520 1520 1521 1523 1523 1525 1526 1528 1530 1532 1533 1534 1535 1536 1536 1537 1538 1539 1540 1540 1541 1541
1512 1508 1522 1526 1507 1484 1480 1479 1479 1479 1482 1487 1487 1495 1501 1508 1514 1499 1517 1513 1513 1509 1513 1516 1518 1520 1519 1520 1520 1522 1524 1525 1526 1527 1529 1531 1532 1534 1535 1535 1536 1536 1537 1537 1538 1539 1538 1538 1539
1512 1516 1521 1513 1503 1493 1483 1480 1481 1484 1487 1489 1492 1498 1504 1507 1514 1515 1510 1510 1513 1509 1511 1514 1518 1521 1521 1520 1523 1524 1525 1526 1526 1527 1529 1531 1532 1533 1534 1535 1536 1536 1537 1538 1538 1538 1538 1537 1537
1508 1510 1515 1506 1506 1501 1482 1482 1483 1484 1491 1493 1494 1505 1505 1506 1511 1514 1513 1509 1509 1512 1516 1517 1520 1523 1521 1522 1524 1524 1525 1525 1526 1526 1528 1529 1530 1531 1532 1533 1534 1534 1534 1535 1536 1536 1536 1536 1535
1508 1518 1524 1511 1501 1493 1486 1485 1487 1489 1493 1497 1499 1503 1508 1507 1508 1507 1513 1512 1516 1517 1518 1516 1522 1521 1522 1523 1524 1525 1525 1526 1525 1525 1526 1527 1528 1529 1530 1530 1530 1531 1531 1531 1533 1533 1532 1532 1532
1505 1520 1513 1498 1495 1497 1490 1489 1490 1492 1499 1505 1506 1509 1510 1509 1506 1506 1506 1512 1518 1521 1522 1523 1524 1523 1524 1521 1524 1525 1524 1525 1523 1522 1523 1523 1522 1523 1525 1526 1528 1528 1529 1529 1528 1529 1528 1527 1528
1500 1510 1500 1495 1495 1496 1495 1492 1492 1494 1506 1509 1511 1512 1512 1512 1511 1510 1511 1513 1514 1516 1517 1520 1521 1521 1521 1521 1520 1521 1522 1522 1520 1520 1519 1519 1519 1517 1518 1521 1522 1524 1526 1526 1526 1524 1523 1523 1523
1500 1496 1496 1495 1495 1497 1497 1495 1497 1498 1507 1510 1513 1514 1514 1516 1516 1516 1515 1516 1515 1515 1517 1516 1515 1515 1517 1518 1519 1519 1519 1519 1519 1519 1517 1515 1516 1516 1515 1515 1518 1516 1520 1522 1522 1520 1520 1519 1518
1496 1494 1494 1495 1496 1498 1498 1499 1502 1504 1507 1511 1513 1516 1519 1520 1522 1521 1521 1520 1518 1516 1516 1515 1515 1515 1515 1515 1517 1517 1517 1517 1516 1515 1515 1513 1513 1512 1511 1510 1512 1510 1514 1517 1517 1516 1515 1516 1515
1496 1495 1494 1495 1496 1498 1500 1500 1500 1507 1508 1511 1513 1517 1519 1521 1524 1524 1525 1525 1524 1523 1521 1520 1518 1517 1516 1516 1514 1514 1513 1513 1512 1511 1511 1510 1510 1510 1507 1507 1508 1509 1510 1512 1511 1511 1511 1510 1511
1495 1499 1495 1495 1496 1499 1499 1503 1502 1505 1508 1511 1514 1517 1520 1521 1523 1526 1527 1527 1527 1525 1523 1521 1519 1517 1515 1513 1511 1510 1509 1508 1508 1507 1507 1507 1505 1506 1505 1503 1505 1504 1505 1508 1508 1506 1507 1506 1504
1497 1498 1512 1494 1493 1498 1500 1516 1503 1505 1507 1510 1513 1516 1518 1521 1523 1524 1525 1525 1525 1524 1522 1520 1517 1514 1512 1511 1509 1506 1504 1503 1502 1502 1503 1503 1503 1501 1502 1500 1498 1498 1501 1503 1501 1501 1501 1500 1501
1501 1513 1506 1497 1491 1496 1500 1509 1503 1503 1505 1508 1511 1513 1516 1519 1521 1522 1523 1522 1521 1520 1518 1516 1514 1512 1510 1508 1505 1503 1500 1499 1497 1496 1495 1495 1496 1497 1497 1496 1495 1495 1495 1496 1495 1493 1493 1493 1495
1513 1507 1497 1500 1495 1493 1500 1504 1501 1502 1503 1506 1509 1513 1516 1518 1519 1521 1521 1520 1518 1517 1516 1514 1512 1509 1506 1504 1501 1499 1497 1495 1494 1492 1491 1491 1490 1489 1487 1487 1487 1487 1488 1488 1487 1488 1489 1490 1490
1498 1500 1501 1493 1491 1497 1499 1501 1499 1499 1502 1504 1508 1510 1514 1517 1520 1520 1519 1518 1517 1516 1514 1511 1509 1506 1504 1501 1498 1496 1493 1491 1490 1488 1487 1485 1484 1483 1481 1479 1479 1480 1481 1482 1482 1481 1483 1483 1483
1499 1502 1502 1491 1490 1494 1496 1501 1496 1494 1498 1502 1505 1510 1514 1516 1517 1519 1518 1516 1515 1513 1511 1509 1507 1505 1502 1499 1496 1494 1492 1489 1487 1485 1483 1482 1477 1476 1474 1473 1473 1472 1473 1474 1474 1474 1475 1475 1475
1499 1503 1499 1503 1496 1494 1499 1508 1498 1490 1495 1500 1503 1506 1509 1512 1515 1517 1516 1514 1513 1510 1508 1506 1503 1502 1499 1496 1494 1491 1488 1485 1482 1479 1477 1476 1475 1472 1469 1468 1466 1465 1466 1466 1466 1467 1467 1467 1467
1511 1497 1499 1501 1511 1529 1502 1538 1503 1499 1509 1505 1505 1507 1511 1512 1514 1514 1514 1513 1511 1509 1506 1502 1500 1498 1496 1493 1490 1487 1484 1481 1478 1475 1471 1469 1468 1466 1464 1462 1461 1459 1459 1459 1459 1459 1460 1461 1460
1506 1498 1503 1504 1513 1515 1514 1527 1509 1503 1516 1514 1509 1510 1512 1512 1513 1513 1513 1511 1509 1507 1503 1499 1497 1495 1492 1489 1487 1484 1481 1477 1473 1470 1465 1462 1459 1457 1455 1454 1453 1452 1452 1451 1452 1451 1451 1451 1453
1497 1501 1504 1504 1514 1541 1515 1516 1521 1510 1511 1514 1512 1511 1513 1512 1511 1512 1510 1508 1506 1504 1501 1498 1495 1492 1489 1486 1484 1480 1476 1471 1466 1462 1458 1453 1450 1448 1446 1445 1444 1442 1441 1441 1440 1441 1442 1442 1443
1499 1511 1543 1543 1541 1541 1503 1509 1516 1505 1505 1508 1511 1513 1511 1509 1509 1509 1507 1505 1503 1501 1498 1496 1492 1489 1486 1483 1480 1476 1472 1467 1462 1456 1450 1445 1439 1437 1435 1435 1432 1432 1431 1431 1432 1432 1432 1433 1434
1502 1509 1549 1562 1565 1541 1507 1527 1524 1507 1505 1507 1509 1510 1510 1510 1508 1506 1505 1503 1500 1498 1495 1492 1489 1485 1482 1478 1474 1470 1466 1460 1454 1448 1441 1435 1431 1427 1425 1422 1422 1421 1422 1422 1423 1423 1423 1425 1425
1500 1516 1509 1529 1525 1542 1525 1516 1512 1508 1510 1509 1510 1510 1509 1508 1506 1504 1502 1500 1499 1496 1493 1489 1485 1482 1478 1473 1468 1462 1456 1450 1442 1436 1432 1426 1422 1418 1415 1413 1411 1410 1411 1411 1412 1413 1414 1417 1418
1497 1498 1523 1534 1556 1547 1529 1523 1525 1514 1511 1510 1509 1508 1507 1506 1505 1502 1499 1498 1496 1493 1490 1487 1482 1477 1472 1466 1460 1453 1446 1439 1433 1427 1422 1417 1412 1408 1405 1403 1401 1399 1399 1401 1402 1403 1405 1407 1409
1505 1508 1506 1519 1533 1559 1565 1538 1505 1508 1507 1507 1506 1507 1506 1504 1502 1499 1497 1495 1492 1489 1485 1482 1477 1472 1465 1459 1451 1444 1435 1428 1423 1417 1412 1407 1403 1399 1395 1393 1391 1390 1390 1392 1393 1394 1396 1398 1400
1490 1497 1505 1537 1528 1535 1542 1539 1498 1500 1502 1503 1504 1502 1505 1502 1499 1497 1494 1492 1488 1485 1482 1478 1472 1465 1458 1450 1442 1435 1426 1419 1413 1407 1402 1398 1393 1389 1386 1383 1381 1380 1380 1382 1384 1386 1389 1391 1393